Time,TemperatureF,DewpointF,PressureIn,WindDirection,WindDirectionDegrees,WindSpeedMPH,WindSpeedGustMPH,Humidity,HourlyPrecipIn,Conditions,Clouds,dailyrainin,SoftwareType,DateUTC
2013-07-20 00:01:00,71.7,68.0,29.85,WNW,302,0.0,0.0,88,0.00,,,0.00,Wunderground v.1.15,2013-07-20 04:01:00,
2013-07-20 00:02:00,71.7,68.0,29.85,WNW,302,0.0,0.0,88,0.00,,,0.00,Wunderground v.1.15,2013-07-20 04:02:00,
2013-07-20 00:03:00,71.6,67.9,29.85,WNW,302,0.0,0.0,88,0.00,,,0.00,Wunderground v.1.15,2013-07-20 04:03:00,
2013-07-20 00:07:00,71.6,68.2,29.84,WNW,302,0.0,0.0,89,0.00,,,0.00,Wunderground v.1.15,2013-07-20 04:07:00,
2013-07-20 00:09:00,71.5,68.1,29.84,WNW,302,0.0,0.0,89,0.00,,,0.00,Wunderground v.1.15,2013-07-20 04:09:00,
2013-07-20 00:16:00,71.3,67.9,29.85,WNW,302,0.0,0.0,89,0.00,,,0.00,Wunderground v.1.15,2013-07-20 04:16:00,
2013-07-20 00:22:00,71.2,68.1,29.84,WNW,302,0.0,0.0,90,0.00,,,0.00,Wunderground v.1.15,2013-07-20 04:22:00,
2013-07-20 00:28:00,71.2,67.8,29.84,WNW,302,0.0,0.0,89,0.00,,,0.00,Wunderground v.1.15,2013-07-20 04:28:00,
2013-07-20 00:35:00,71.6,68.2,29.84,WNW,302,0.0,0.0,89,0.00,,,0.00,Wunderground v.1.15,2013-07-20 04:35:00,
2013-07-20 00:40:00,72.0,68.2,29.85,WNW,302,0.0,0.0,88,0.00,,,0.00,Wunderground v.1.15,2013-07-20 04:40:00,
2013-07-20 00:46:00,72.4,68.3,29.84,WNW,302,0.0,0.0,87,0.00,,,0.00,Wunderground v.1.15,2013-07-20 04:46:00,
2013-07-20 00:51:00,72.5,68.4,29.85,WNW,302,0.0,0.0,87,0.00,,,0.00,Wunderground v.1.15,2013-07-20 04:51:00,
2013-07-20 00:56:00,72.8,68.4,29.85,WNW,302,0.0,0.0,86,0.00,,,0.00,Wunderground v.1.15,2013-07-20 04:56:00,
2013-07-20 01:01:00,72.6,68.2,29.85,WNW,302,0.0,0.0,86,0.00,,,0.00,Wunderground v.1.15,2013-07-20 05:01:00,
2013-07-20 01:06:00,72.6,68.2,29.85,WNW,302,0.0,0.0,86,0.00,,,0.00,Wunderground v.1.15,2013-07-20 05:06:00,
2013-07-20 01:11:00,72.6,68.5,29.86,WNW,302,0.0,0.0,87,0.00,,,0.00,Wunderground v.1.15,2013-07-20 05:11:00,
2013-07-20 01:17:00,72.4,68.6,29.86,WNW,302,0.0,0.0,88,0.00,,,0.00,Wunderground v.1.15,2013-07-20 05:17:00,
2013-07-20 01:22:00,72.3,68.5,29.86,WNW,302,0.0,1.0,88,0.00,,,0.00,Wunderground v.1.15,2013-07-20 05:22:00,
2013-07-20 01:28:00,72.0,68.6,29.86,WNW,302,0.0,1.0,89,0.00,,,0.00,Wunderground v.1.15,2013-07-20 05:28:00,
2013-07-20 01:33:00,71.9,68.5,29.86,WNW,302,0.0,0.0,89,0.00,,,0.00,Wunderground v.1.15,2013-07-20 05:33:00,
2013-07-20 01:39:00,72.0,68.6,29.86,WNW,302,0.0,0.0,89,0.00,,,0.00,Wunderground v.1.15,2013-07-20 05:39:00,
2013-07-20 01:46:00,71.8,68.4,29.87,WNW,302,0.0,0.0,89,0.00,,,0.00,Wunderground v.1.15,2013-07-20 05:46:00,
2013-07-20 01:51:00,71.8,68.4,29.86,WNW,302,0.0,0.0,89,0.00,,,0.00,Wunderground v.1.15,2013-07-20 05:51:00,
2013-07-20 01:57:00,71.7,68.6,29.86,WNW,302,0.0,0.0,90,0.00,,,0.00,Wunderground v.1.15,2013-07-20 05:57:00,
2013-07-20 02:02:00,71.7,68.6,29.86,WNW,302,0.0,0.0,90,0.00,,,0.00,Wunderground v.1.15,2013-07-20 06:02:00,
2013-07-20 02:08:00,71.4,68.3,29.86,WNW,302,0.0,0.0,90,0.00,,,0.00,Wunderground v.1.15,2013-07-20 06:08:00,
2013-07-20 02:13:00,71.5,68.4,29.86,WNW,302,0.0,0.0,90,0.00,,,0.00,Wunderground v.1.15,2013-07-20 06:13:00,
2013-07-20 02:19:00,72.1,68.7,29.86,WNW,302,0.0,5.0,89,0.00,,,0.00,Wunderground v.1.15,2013-07-20 06:19:00,
2013-07-20 02:26:00,73.1,68.7,29.86,NW,304,1.0,2.0,86,0.00,,,0.00,Wunderground v.1.15,2013-07-20 06:26:00,
2013-07-20 02:31:00,73.3,68.9,29.86,NW,304,1.0,1.0,86,0.00,,,0.00,Wunderground v.1.15,2013-07-20 06:31:00,
2013-07-20 02:37:00,73.4,69.0,29.86,NW,306,1.0,3.0,86,0.00,,,0.00,Wunderground v.1.15,2013-07-20 06:37:00,
2013-07-20 02:43:00,73.3,68.9,29.86,NW,306,0.0,0.0,86,0.00,,,0.00,Wunderground v.1.15,2013-07-20 06:43:00,
2013-07-20 02:49:00,73.3,68.9,29.85,NW,306,0.0,1.0,86,0.00,,,0.00,Wunderground v.1.15,2013-07-20 06:49:00,
2013-07-20 02:56:00,73.3,68.9,29.85,NW,306,0.0,0.0,86,0.00,,,0.00,Wunderground v.1.15,2013-07-20 06:56:00,
2013-07-20 03:06:00,73.2,68.8,29.85,NW,306,0.0,0.0,86,0.00,,,0.00,Wunderground v.1.15,2013-07-20 07:06:00,
2013-07-20 03:11:00,73.2,68.8,29.84,NW,306,0.0,0.0,86,0.00,,,0.00,Wunderground v.1.15,2013-07-20 07:11:00,
2013-07-20 03:19:00,73.0,68.6,29.84,NW,306,0.0,0.0,86,0.00,,,0.00,Wunderground v.1.15,2013-07-20 07:19:00,
2013-07-20 03:25:00,72.9,68.5,29.83,NW,306,0.0,0.0,86,0.00,,,0.00,Wunderground v.1.15,2013-07-20 07:25:00,
2013-07-20 03:31:00,73.0,68.6,29.83,NW,306,0.0,0.0,86,0.00,,,0.00,Wunderground v.1.15,2013-07-20 07:31:00,
2013-07-20 03:36:00,73.0,68.6,29.83,NW,306,0.0,0.0,86,0.00,,,0.00,Wunderground v.1.15,2013-07-20 07:36:00,
2013-07-20 03:42:00,73.0,68.6,29.82,NW,306,0.0,0.0,86,0.00,,,0.00,Wunderground v.1.15,2013-07-20 07:42:00,
2013-07-20 03:47:00,73.0,68.6,29.82,NNE,25,0.0,3.0,86,0.00,,,0.00,Wunderground v.1.15,2013-07-20 07:47:00,
2013-07-20 03:54:00,73.0,68.6,29.81,NNE,25,0.0,0.0,86,0.00,,,0.00,Wunderground v.1.15,2013-07-20 07:54:00,
2013-07-20 03:59:00,73.0,68.6,29.81,NNE,25,0.0,0.0,86,0.00,,,0.00,Wunderground v.1.15,2013-07-20 07:59:00,
2013-07-20 04:05:00,73.0,68.9,29.81,NNE,25,0.0,0.0,87,0.00,,,0.00,Wunderground v.1.15,2013-07-20 08:05:00,
2013-07-20 04:10:00,73.0,68.9,29.81,NNE,25,0.0,0.0,87,0.00,,,0.00,Wunderground v.1.15,2013-07-20 08:10:00,
2013-07-20 04:16:00,73.0,68.9,29.81,NNE,25,0.0,0.0,87,0.00,,,0.00,Wunderground v.1.15,2013-07-20 08:16:00,
2013-07-20 04:22:00,73.0,68.9,29.81,NNE,25,0.0,0.0,87,0.00,,,0.00,Wunderground v.1.15,2013-07-20 08:22:00,
2013-07-20 04:27:00,73.0,69.2,29.81,NNE,24,0.0,1.0,88,0.00,,,0.00,Wunderground v.1.15,2013-07-20 08:27:00,
2013-07-20 04:34:00,73.1,69.3,29.81,NNE,24,0.0,0.0,88,0.00,,,0.00,Wunderground v.1.15,2013-07-20 08:34:00,
2013-07-20 04:40:00,73.3,69.5,29.81,NW,325,0.0,2.0,88,0.00,,,0.00,Wunderground v.1.15,2013-07-20 08:40:00,
2013-07-20 04:46:00,73.8,69.3,29.81,NW,325,1.0,3.0,86,0.00,,,0.00,Wunderground v.1.15,2013-07-20 08:46:00,
2013-07-20 04:51:00,74.0,69.5,29.81,NW,325,1.0,1.0,86,0.00,,,0.00,Wunderground v.1.15,2013-07-20 08:51:00,
2013-07-20 04:56:00,74.1,69.6,29.82,NW,325,1.0,1.0,86,0.00,,,0.00,Wunderground v.1.15,2013-07-20 08:56:00,
2013-07-20 05:02:00,74.0,69.5,29.82,NW,325,0.0,1.0,86,0.00,,,0.00,Wunderground v.1.15,2013-07-20 09:02:00,
2013-07-20 05:09:00,73.8,69.3,29.83,NW,325,1.0,1.0,86,0.00,,,0.00,Wunderground v.1.15,2013-07-20 09:09:00,
2013-07-20 05:14:00,73.7,69.6,29.83,NW,325,1.0,2.0,87,0.00,,,0.00,Wunderground v.1.15,2013-07-20 09:14:00,
2013-07-20 05:20:00,73.4,69.6,29.84,NW,325,1.0,2.0,88,0.00,,,0.00,Wunderground v.1.15,2013-07-20 09:20:00,
2013-07-20 05:26:00,73.2,69.4,29.84,NW,325,0.0,1.0,88,0.00,,,0.00,Wunderground v.1.15,2013-07-20 09:26:00,
2013-07-20 05:32:00,73.1,69.3,29.84,NW,325,0.0,0.0,88,0.00,,,0.00,Wunderground v.1.15,2013-07-20 09:32:00,
2013-07-20 05:37:00,73.1,69.3,29.84,NW,325,0.0,0.0,88,0.00,,,0.00,Wunderground v.1.15,2013-07-20 09:37:00,
2013-07-20 05:42:00,73.0,69.6,29.84,NW,325,0.0,0.0,89,0.00,,,0.00,Wunderground v.1.15,2013-07-20 09:42:00,
2013-07-20 05:49:00,73.0,69.6,29.84,NW,325,0.0,0.0,89,0.00,,,0.00,Wunderground v.1.15,2013-07-20 09:49:00,
2013-07-20 05:55:00,73.0,69.9,29.84,NW,325,0.0,0.0,90,0.00,,,0.00,Wunderground v.1.15,2013-07-20 09:55:00,
2013-07-20 06:01:00,72.9,69.8,29.84,NW,325,0.0,0.0,90,0.00,,,0.00,Wunderground v.1.15,2013-07-20 10:01:00,
2013-07-20 06:06:00,72.7,69.6,29.84,NW,325,0.0,0.0,90,0.00,,,0.00,Wunderground v.1.15,2013-07-20 10:06:00,
2013-07-20 06:11:00,72.5,69.4,29.84,NW,325,0.0,0.0,90,0.00,,,0.00,Wunderground v.1.15,2013-07-20 10:11:00,
2013-07-20 06:16:00,72.4,69.3,29.84,NW,325,0.0,0.0,90,0.00,,,0.00,Wunderground v.1.15,2013-07-20 10:16:00,
2013-07-20 06:21:00,72.4,69.3,29.84,NW,325,0.0,0.0,90,0.00,,,0.00,Wunderground v.1.15,2013-07-20 10:21:00,
2013-07-20 06:27:00,72.4,69.6,29.84,NW,325,0.0,0.0,91,0.00,,,0.00,Wunderground v.1.15,2013-07-20 10:27:00,
2013-07-20 06:34:00,72.8,69.7,29.85,NW,325,0.0,0.0,90,0.00,,,0.00,Wunderground v.1.15,2013-07-20 10:34:00,
2013-07-20 06:40:00,73.2,69.8,29.85,NW,325,0.0,0.0,89,0.00,,,0.00,Wunderground v.1.15,2013-07-20 10:40:00,
2013-07-20 06:46:00,73.5,70.1,29.85,NW,325,0.0,0.0,89,0.00,,,0.00,Wunderground v.1.15,2013-07-20 10:46:00,
2013-07-20 06:51:00,73.6,70.2,29.85,NW,325,0.0,0.0,89,0.00,,,0.00,Wunderground v.1.15,2013-07-20 10:51:00,
2013-07-20 06:56:00,73.7,70.3,29.85,NW,325,0.0,0.0,89,0.00,,,0.00,Wunderground v.1.15,2013-07-20 10:56:00,
2013-07-20 07:02:00,73.7,70.3,29.85,NW,325,0.0,0.0,89,0.00,,,0.00,Wunderground v.1.15,2013-07-20 11:02:00,
2013-07-20 07:07:00,73.7,70.3,29.85,NW,325,0.0,0.0,89,0.00,,,0.00,Wunderground v.1.15,2013-07-20 11:07:00,
2013-07-20 07:13:00,73.7,70.3,29.85,NW,325,0.0,0.0,89,0.00,,,0.00,Wunderground v.1.15,2013-07-20 11:13:00,
2013-07-20 07:20:00,73.7,70.6,29.84,NW,325,0.0,0.0,90,0.00,,,0.00,Wunderground v.1.15,2013-07-20 11:20:00,
2013-07-20 07:25:00,73.9,70.8,29.85,NW,325,0.0,0.0,90,0.00,,,0.00,Wunderground v.1.15,2013-07-20 11:25:00,
2013-07-20 07:31:00,74.0,70.9,29.85,NW,325,0.0,0.0,90,0.00,,,0.00,Wunderground v.1.15,2013-07-20 11:31:00,
2013-07-20 07:36:00,74.2,71.1,29.85,NW,325,0.0,3.0,90,0.00,,,0.00,Wunderground v.1.15,2013-07-20 11:36:00,
2013-07-20 07:41:00,74.4,70.9,29.85,NW,325,0.0,0.0,89,0.00,,,0.00,Wunderground v.1.15,2013-07-20 11:41:00,
2013-07-20 07:46:00,74.6,71.1,29.85,NW,325,0.0,2.0,89,0.00,,,0.00,Wunderground v.1.15,2013-07-20 11:46:00,
2013-07-20 07:51:00,74.9,71.4,29.85,NW,325,0.0,0.0,89,0.00,,,0.00,Wunderground v.1.15,2013-07-20 11:51:00,
2013-07-20 07:57:00,75.3,71.5,29.85,NW,325,0.0,3.0,88,0.00,,,0.00,Wunderground v.1.15,2013-07-20 11:57:00,
2013-07-20 08:02:00,75.5,71.4,29.85,NW,325,0.0,1.0,87,0.00,,,0.00,Wunderground v.1.15,2013-07-20 12:02:00,
2013-07-20 08:07:00,75.8,71.7,29.85,NNW,338,0.0,1.0,87,0.00,,,0.00,Wunderground v.1.15,2013-07-20 12:07:00,
2013-07-20 08:13:00,76.1,71.9,29.85,NNW,338,0.0,2.0,87,0.00,,,0.00,Wunderground v.1.15,2013-07-20 12:13:00,
2013-07-20 08:19:00,76.3,72.1,29.86,NNW,338,0.0,2.0,87,0.00,,,0.00,Wunderground v.1.15,2013-07-20 12:19:00,
2013-07-20 08:25:00,76.6,72.1,29.85,NNW,338,0.0,1.0,86,0.00,,,0.00,Wunderground v.1.15,2013-07-20 12:25:00,
2013-07-20 08:31:00,76.8,72.3,29.85,NNW,338,0.0,0.0,86,0.00,,,0.00,Wunderground v.1.15,2013-07-20 12:31:00,
2013-07-20 08:36:00,77.1,72.2,29.85,NNW,338,0.0,0.0,85,0.00,,,0.00,Wunderground v.1.15,2013-07-20 12:36:00,
2013-07-20 08:41:00,77.3,72.4,29.85,NNW,338,0.0,1.0,85,0.00,,,0.00,Wunderground v.1.15,2013-07-20 12:41:00,
2013-07-20 08:46:00,77.5,72.6,29.86,NNW,338,0.0,1.0,85,0.00,,,0.00,Wunderground v.1.15,2013-07-20 12:46:00,
2013-07-20 08:51:00,77.7,72.8,29.86,NNW,338,0.0,0.0,85,0.00,,,0.00,Wunderground v.1.15,2013-07-20 12:51:00,
2013-07-20 08:56:00,78.0,72.8,29.86,NNW,347,0.0,0.0,84,0.00,,,0.00,Wunderground v.1.15,2013-07-20 12:56:00,
2013-07-20 09:02:00,78.4,72.8,29.85,NNW,348,0.0,0.0,83,0.00,,,0.00,Wunderground v.1.15,2013-07-20 13:02:00,
2013-07-20 09:07:00,78.7,72.7,29.85,North,5,0.0,1.0,82,0.00,,,0.00,Wunderground v.1.15,2013-07-20 13:07:00,
2013-07-20 09:13:00,79.0,72.7,29.85,ENE,73,0.0,0.0,81,0.00,,,0.00,Wunderground v.1.15,2013-07-20 13:13:00,
2013-07-20 09:21:00,79.1,72.8,29.86,ENE,72,0.0,0.0,81,0.00,,,0.00,Wunderground v.1.15,2013-07-20 13:21:00,
2013-07-20 09:27:00,79.2,73.2,29.86,ENE,72,0.0,0.0,82,0.00,,,0.00,Wunderground v.1.15,2013-07-20 13:27:00,
2013-07-20 09:34:00,79.7,74.4,29.86,ENE,71,0.0,1.0,84,0.00,,,0.00,Wunderground v.1.15,2013-07-20 13:34:00,
2013-07-20 09:40:00,81.0,75.0,29.86,NW,321,1.0,3.0,82,0.00,,,0.00,Wunderground v.1.15,2013-07-20 13:40:00,
2013-07-20 09:46:00,82.1,74.6,29.86,NNW,333,1.0,4.0,78,0.00,,,0.00,Wunderground v.1.15,2013-07-20 13:46:00,
2013-07-20 09:51:00,82.8,74.1,29.86,East,89,1.0,1.0,75,0.00,,,0.00,Wunderground v.1.15,2013-07-20 13:51:00,
2013-07-20 09:56:00,83.0,74.3,29.86,ENE,57,1.0,3.0,75,0.00,,,0.00,Wunderground v.1.15,2013-07-20 13:56:00,
2013-07-20 10:02:00,83.0,74.6,29.86,NW,304,1.0,2.0,76,0.00,,,0.00,Wunderground v.1.15,2013-07-20 14:02:00,
2013-07-20 10:08:00,82.9,74.2,29.86,NW,320,2.0,4.0,75,0.00,,,0.00,Wunderground v.1.15,2013-07-20 14:08:00,
2013-07-20 10:13:00,83.6,74.0,29.85,NW,309,2.0,2.0,73,0.00,,,0.00,Wunderground v.1.15,2013-07-20 14:13:00,
2013-07-20 10:19:00,84.4,74.8,29.86,WNW,295,2.0,4.0,73,0.00,,,0.00,Wunderground v.1.15,2013-07-20 14:19:00,
2013-07-20 10:25:00,84.3,73.4,29.86,NW,310,2.0,4.0,70,0.00,,,0.00,Wunderground v.1.15,2013-07-20 14:25:00,
2013-07-20 10:31:00,84.6,75.0,29.86,WNW,295,3.0,3.0,73,0.00,,,0.00,Wunderground v.1.15,2013-07-20 14:31:00,
2013-07-20 10:36:00,85.2,74.3,29.86,NW,309,2.0,3.0,70,0.00,,,0.00,Wunderground v.1.15,2013-07-20 14:36:00,
2013-07-20 10:42:00,85.0,74.1,29.85,NW,309,3.0,3.0,70,0.00,,,0.00,Wunderground v.1.15,2013-07-20 14:42:00,
2013-07-20 10:50:00,84.9,74.0,29.85,West,270,3.0,6.0,70,0.00,,,0.00,Wunderground v.1.15,2013-07-20 14:50:00,
2013-07-20 10:56:00,85.7,74.4,29.85,WNW,300,3.0,4.0,69,0.00,,,0.00,Wunderground v.1.15,2013-07-20 14:56:00,
2013-07-20 11:02:00,85.9,74.1,29.85,WNW,287,3.0,4.0,68,0.00,,,0.00,Wunderground v.1.15,2013-07-20 15:02:00,
2013-07-20 11:08:00,85.9,75.0,29.85,SSE,165,3.0,6.0,70,0.00,,,0.00,Wunderground v.1.15,2013-07-20 15:08:00,
2013-07-20 11:13:00,86.9,75.5,29.85,NW,312,3.0,6.0,69,0.00,,,0.00,Wunderground v.1.15,2013-07-20 15:13:00,
2013-07-20 11:19:00,86.2,74.4,29.85,West,266,4.0,8.0,68,0.00,,,0.00,Wunderground v.1.15,2013-07-20 15:19:00,
2013-07-20 11:24:00,86.2,75.3,29.85,WNW,302,4.0,5.0,70,0.00,,,0.00,Wunderground v.1.15,2013-07-20 15:24:00,
2013-07-20 11:31:00,86.6,75.2,29.85,WNW,296,4.0,4.0,69,0.00,,,0.00,Wunderground v.1.15,2013-07-20 15:31:00,
2013-07-20 11:36:00,86.6,73.9,29.85,WNW,282,4.0,5.0,66,0.00,,,0.00,Wunderground v.1.15,2013-07-20 15:36:00,
2013-07-20 11:41:00,86.6,74.3,29.85,NW,312,4.0,4.0,67,0.00,,,0.00,Wunderground v.1.15,2013-07-20 15:41:00,
2013-07-20 11:47:00,87.0,75.2,29.85,WNW,288,3.0,6.0,68,0.00,,,0.00,Wunderground v.1.15,2013-07-20 15:47:00,
2013-07-20 11:52:00,87.1,76.1,29.85,WNW,303,3.0,3.0,70,0.00,,,0.00,Wunderground v.1.15,2013-07-20 15:52:00,
2013-07-20 11:58:00,87.7,74.9,29.85,NW,312,2.0,5.0,66,0.00,,,0.00,Wunderground v.1.15,2013-07-20 15:58:00,
2013-07-20 12:03:00,87.2,72.6,29.85,West,261,4.0,8.0,62,0.00,,,0.00,Wunderground v.1.15,2013-07-20 16:03:00,
2013-07-20 12:08:00,87.3,73.6,29.84,WNW,300,4.0,8.0,64,0.00,,,0.00,Wunderground v.1.15,2013-07-20 16:08:00,
2013-07-20 12:14:00,87.0,73.8,29.84,NW,320,4.0,6.0,65,0.00,,,0.00,Wunderground v.1.15,2013-07-20 16:14:00,
2013-07-20 12:19:00,87.3,74.5,29.84,NW,317,3.0,6.0,66,0.00,,,0.00,Wunderground v.1.15,2013-07-20 16:19:00,
2013-07-20 12:25:00,88.0,74.3,29.84,WNW,297,3.0,5.0,64,0.00,,,0.00,Wunderground v.1.15,2013-07-20 16:25:00,
2013-07-20 12:30:00,88.7,73.5,29.84,NW,315,3.0,3.0,61,0.00,,,0.00,Wunderground v.1.15,2013-07-20 16:30:00,
2013-07-20 12:37:00,88.7,75.4,29.84,NW,317,4.0,9.0,65,0.00,,,0.00,Wunderground v.1.15,2013-07-20 16:37:00,
2013-07-20 12:42:00,88.4,74.2,29.84,NW,323,5.0,6.0,63,0.00,,,0.00,Wunderground v.1.15,2013-07-20 16:42:00,
2013-07-20 12:51:00,88.9,75.1,29.84,NW,309,3.0,3.0,64,0.00,,,0.00,Wunderground v.1.15,2013-07-20 16:51:00,
2013-07-20 12:56:00,88.9,74.2,29.84,NW,309,3.0,5.0,62,0.00,,,0.00,Wunderground v.1.15,2013-07-20 16:56:00,
2013-07-20 13:01:00,89.2,73.0,29.84,West,269,3.0,8.0,59,0.00,,,0.00,Wunderground v.1.15,2013-07-20 17:01:00,
2013-07-20 13:07:00,89.6,72.3,29.84,WNW,290,3.0,8.0,57,0.00,,,0.00,Wunderground v.1.15,2013-07-20 17:07:00,
2013-07-20 13:12:00,89.6,73.4,29.83,WNW,292,4.0,7.0,59,0.00,,,0.00,Wunderground v.1.15,2013-07-20 17:12:00,
2013-07-20 13:17:00,89.7,73.5,29.84,NW,325,4.0,7.0,59,0.00,,,0.00,Wunderground v.1.15,2013-07-20 17:17:00,
2013-07-20 13:23:00,90.2,72.9,29.83,WNW,295,2.0,4.0,57,0.00,,,0.00,Wunderground v.1.15,2013-07-20 17:23:00,
2013-07-20 13:29:00,90.3,73.5,29.83,WNW,286,3.0,8.0,58,0.00,,,0.00,Wunderground v.1.15,2013-07-20 17:29:00,
2013-07-20 13:34:00,90.1,72.8,29.83,West,276,5.0,6.0,57,0.00,,,0.00,Wunderground v.1.15,2013-07-20 17:34:00,
2013-07-20 13:40:00,90.6,74.3,29.83,NW,307,4.0,4.0,59,0.00,,,0.00,Wunderground v.1.15,2013-07-20 17:40:00,
2013-07-20 13:46:00,90.7,74.4,29.83,NW,319,3.0,5.0,59,0.00,,,0.00,Wunderground v.1.15,2013-07-20 17:46:00,
2013-07-20 13:52:00,90.8,72.4,29.82,WNW,301,3.0,7.0,55,0.00,,,0.00,Wunderground v.1.15,2013-07-20 17:52:00,
2013-07-20 13:57:00,90.4,73.6,29.82,WNW,302,4.0,7.0,58,0.00,,,0.00,Wunderground v.1.15,2013-07-20 17:57:00,
2013-07-20 14:04:00,90.5,73.2,29.81,NW,306,5.0,7.0,57,0.00,,,0.00,Wunderground v.1.15,2013-07-20 18:04:00,
2013-07-20 14:10:00,91.1,72.7,29.81,NW,304,4.0,4.0,55,0.00,,,0.00,Wunderground v.1.15,2013-07-20 18:10:00,
2013-07-20 14:16:00,91.6,72.6,29.81,SE,124,3.0,6.0,54,0.00,,,0.00,Wunderground v.1.15,2013-07-20 18:16:00,
2013-07-20 14:21:00,91.1,72.1,29.81,WNW,296,3.0,6.0,54,0.00,,,0.00,Wunderground v.1.15,2013-07-20 18:21:00,
2013-07-20 14:26:00,89.7,70.8,29.81,WNW,298,4.0,9.0,54,0.00,,,0.00,Wunderground v.1.15,2013-07-20 18:26:00,
2013-07-20 14:31:00,90.7,72.8,29.81,NW,308,4.0,4.0,56,0.00,,,0.00,Wunderground v.1.15,2013-07-20 18:31:00,
2013-07-20 14:38:00,90.6,72.2,29.80,WNW,285,2.0,4.0,55,0.00,,,0.00,Wunderground v.1.15,2013-07-20 18:38:00,
2013-07-20 14:44:00,90.4,73.1,29.80,NW,318,3.0,5.0,57,0.00,,,0.00,Wunderground v.1.15,2013-07-20 18:44:00,
2013-07-20 14:49:00,91.2,73.8,29.80,NW,318,5.0,10.0,57,0.00,,,0.00,Wunderground v.1.15,2013-07-20 18:49:00,
2013-07-20 14:55:00,91.2,73.3,29.80,NW,311,6.0,8.0,56,0.00,,,0.00,Wunderground v.1.15,2013-07-20 18:55:00,
2013-07-20 15:02:00,90.4,73.1,29.80,NW,306,5.0,5.0,57,0.00,,,0.00,Wunderground v.1.15,2013-07-20 19:02:00,
2013-07-20 15:07:00,91.6,74.2,29.80,NW,317,5.0,10.0,57,0.00,,,0.00,Wunderground v.1.15,2013-07-20 19:07:00,
2013-07-20 15:14:00,91.9,72.9,29.80,WNW,298,6.0,9.0,54,0.00,,,0.00,Wunderground v.1.15,2013-07-20 19:14:00,
2013-07-20 15:19:00,90.6,72.8,29.80,WNW,290,6.0,10.0,56,0.00,,,0.00,Wunderground v.1.15,2013-07-20 19:19:00,
2013-07-20 15:25:00,88.4,71.2,29.80,WNW,302,7.0,8.0,57,0.00,,,0.00,Wunderground v.1.15,2013-07-20 19:25:00,
2013-07-20 15:31:00,88.9,68.4,29.80,NW,304,7.0,7.0,51,0.00,,,0.00,Wunderground v.1.15,2013-07-20 19:31:00,
2013-07-20 15:36:00,89.2,69.3,29.79,NW,323,6.0,9.0,52,0.00,,,0.00,Wunderground v.1.15,2013-07-20 19:36:00,
2013-07-20 15:44:00,89.0,69.1,29.79,NW,306,4.0,8.0,52,0.00,,,0.00,Wunderground v.1.15,2013-07-20 19:44:00,
2013-07-20 15:49:00,89.3,70.5,29.78,NW,315,4.0,8.0,54,0.00,,,0.00,Wunderground v.1.15,2013-07-20 19:49:00,
2013-07-20 15:55:00,89.8,71.5,29.78,NW,314,4.0,6.0,55,0.00,,,0.00,Wunderground v.1.15,2013-07-20 19:55:00,
2013-07-20 16:01:00,90.0,70.0,29.78,WNW,297,4.0,4.0,52,0.00,,,0.00,Wunderground v.1.15,2013-07-20 20:01:00,
2013-07-20 16:06:00,90.5,72.1,29.77,WNW,298,3.0,6.0,55,0.00,,,0.00,Wunderground v.1.15,2013-07-20 20:06:00,
2013-07-20 16:12:00,91.5,73.1,29.77,WNW,296,3.0,7.0,55,0.00,,,0.00,Wunderground v.1.15,2013-07-20 20:12:00,
2013-07-20 16:17:00,91.3,72.9,29.76,NW,304,4.0,7.0,55,0.00,,,0.00,Wunderground v.1.15,2013-07-20 20:17:00,
2013-07-20 16:23:00,91.5,72.5,29.76,WNW,296,5.0,7.0,54,0.00,,,0.00,Wunderground v.1.15,2013-07-20 20:23:00,
2013-07-20 16:29:00,91.9,72.3,29.76,WNW,300,3.0,7.0,53,0.00,,,0.00,Wunderground v.1.15,2013-07-20 20:29:00,
2013-07-20 16:34:00,92.1,71.9,29.76,NW,306,3.0,7.0,52,0.00,,,0.00,Wunderground v.1.15,2013-07-20 20:34:00,
2013-07-20 16:39:00,92.5,72.3,29.76,WNW,286,3.0,7.0,52,0.00,,,0.00,Wunderground v.1.15,2013-07-20 20:39:00,
2013-07-20 16:46:00,92.1,72.5,29.76,ENE,61,2.0,5.0,53,0.00,,,0.00,Wunderground v.1.15,2013-07-20 20:46:00,
2013-07-20 16:51:00,92.6,73.0,29.76,NNW,339,1.0,1.0,53,0.00,,,0.00,Wunderground v.1.15,2013-07-20 20:51:00,
2013-07-20 16:57:00,92.8,71.4,29.76,NW,304,2.0,3.0,50,0.00,,,0.00,Wunderground v.1.15,2013-07-20 20:57:00,
2013-07-20 17:05:00,92.5,72.3,29.75,West,278,3.0,5.0,52,0.00,,,0.00,Wunderground v.1.15,2013-07-20 21:05:00,
2013-07-20 17:10:00,92.6,73.0,29.75,NNW,333,2.0,2.0,53,0.00,,,0.00,Wunderground v.1.15,2013-07-20 21:10:00,
2013-07-20 17:15:00,92.4,73.9,29.76,West,280,3.0,6.0,55,0.00,,,0.00,Wunderground v.1.15,2013-07-20 21:15:00,
2013-07-20 17:21:00,91.8,72.2,29.76,WSW,252,5.0,8.0,53,0.00,,,0.00,Wunderground v.1.15,2013-07-20 21:21:00,
2013-07-20 17:26:00,91.9,72.3,29.75,NNE,17,4.0,8.0,53,0.00,,,0.00,Wunderground v.1.15,2013-07-20 21:26:00,
2013-07-20 17:31:00,92.4,71.6,29.75,NW,304,3.0,3.0,51,0.00,,,0.00,Wunderground v.1.15,2013-07-20 21:31:00,
2013-07-20 17:37:00,92.6,71.8,29.75,West,270,2.0,3.0,51,0.00,,,0.00,Wunderground v.1.15,2013-07-20 21:37:00,
2013-07-20 17:44:00,92.9,74.9,29.76,NW,323,2.0,4.0,56,0.00,,,0.00,Wunderground v.1.15,2013-07-20 21:44:00,
2013-07-20 17:50:00,93.0,72.8,29.76,NW,309,1.0,4.0,52,0.00,,,0.00,Wunderground v.1.15,2013-07-20 21:50:00,
2013-07-20 17:55:00,92.3,73.2,29.76,NW,307,3.0,8.0,54,0.00,,,0.00,Wunderground v.1.15,2013-07-20 21:55:00,
2013-07-20 18:02:00,92.7,73.1,29.76,NNW,346,1.0,2.0,53,0.00,,,0.00,Wunderground v.1.15,2013-07-20 22:02:00,
2013-07-20 18:09:00,92.6,72.4,29.76,East,80,1.0,3.0,52,0.00,,,0.00,Wunderground v.1.15,2013-07-20 22:09:00,
2013-07-20 18:14:00,92.4,73.9,29.76,NNE,13,1.0,5.0,55,0.00,,,0.00,Wunderground v.1.15,2013-07-20 22:14:00,
2013-07-20 18:20:00,92.7,73.1,29.76,NNE,25,1.0,1.0,53,0.00,,,0.00,Wunderground v.1.15,2013-07-20 22:20:00,
2013-07-20 18:26:00,92.2,73.2,29.76,WNW,302,1.0,3.0,54,0.00,,,0.00,Wunderground v.1.15,2013-07-20 22:26:00,
2013-07-20 18:31:00,91.9,72.9,29.76,WNW,300,2.0,4.0,54,0.00,,,0.00,Wunderground v.1.15,2013-07-20 22:31:00,
2013-07-20 18:37:00,91.2,73.3,29.76,WNW,289,3.0,6.0,56,0.00,,,0.00,Wunderground v.1.15,2013-07-20 22:37:00,
2013-07-20 18:42:00,90.4,72.0,29.76,NW,313,3.0,4.0,55,0.00,,,0.00,Wunderground v.1.15,2013-07-20 22:42:00,
2013-07-20 18:49:00,89.0,72.8,29.76,NW,313,2.0,5.0,59,0.00,,,0.00,Wunderground v.1.15,2013-07-20 22:49:00,
2013-07-20 18:54:00,88.8,72.6,29.77,WNW,294,2.0,3.0,59,0.00,,,0.00,Wunderground v.1.15,2013-07-20 22:54:00,
2013-07-20 19:01:00,88.5,72.8,29.76,NW,308,2.0,2.0,60,0.00,,,0.00,Wunderground v.1.15,2013-07-20 23:01:00,
2013-07-20 19:06:00,88.1,73.0,29.76,NW,308,1.0,2.0,61,0.00,,,0.00,Wunderground v.1.15,2013-07-20 23:06:00,
2013-07-20 19:11:00,87.8,72.7,29.76,NW,308,0.0,0.0,61,0.00,,,0.00,Wunderground v.1.15,2013-07-20 23:11:00,
2013-07-20 19:16:00,87.6,72.0,29.76,NW,308,0.0,2.0,60,0.00,,,0.00,Wunderground v.1.15,2013-07-20 23:16:00,
2013-07-20 19:22:00,87.5,72.4,29.77,NW,308,0.0,1.0,61,0.00,,,0.00,Wunderground v.1.15,2013-07-20 23:22:00,
2013-07-20 19:28:00,86.5,73.8,29.77,NW,308,0.0,1.0,66,0.00,,,0.00,Wunderground v.1.15,2013-07-20 23:28:00,
2013-07-20 19:34:00,85.7,73.5,29.78,NW,308,0.0,0.0,67,0.00,,,0.00,Wunderground v.1.15,2013-07-20 23:34:00,
2013-07-20 19:40:00,85.6,74.7,29.78,NW,308,0.0,0.0,70,0.00,,,0.00,Wunderground v.1.15,2013-07-20 23:40:00,
2013-07-20 19:46:00,85.6,73.8,29.78,NW,308,0.0,0.0,68,0.00,,,0.00,Wunderground v.1.15,2013-07-20 23:46:00,
2013-07-20 19:51:00,85.6,75.1,29.79,NW,308,0.0,0.0,71,0.00,,,0.00,Wunderground v.1.15,2013-07-20 23:51:00,
2013-07-20 19:56:00,85.5,76.3,29.79,NW,309,0.0,0.0,74,0.00,,,0.00,Wunderground v.1.15,2013-07-20 23:56:00,
2013-07-20 20:05:00,85.1,75.1,29.79,NW,309,0.0,0.0,72,0.00,,,0.00,Wunderground v.1.15,2013-07-21 00:05:00,
2013-07-20 20:11:00,84.6,74.2,29.79,NW,309,0.0,1.0,71,0.00,,,0.00,Wunderground v.1.15,2013-07-21 00:11:00,
2013-07-20 20:16:00,84.3,74.3,29.79,NW,309,0.0,1.0,72,0.00,,,0.00,Wunderground v.1.15,2013-07-21 00:16:00,
2013-07-20 20:21:00,84.1,72.8,29.79,NW,309,0.0,0.0,69,0.00,,,0.00,Wunderground v.1.15,2013-07-21 00:21:00,
2013-07-20 20:27:00,84.3,73.9,29.79,NW,309,0.0,0.0,71,0.00,,,0.00,Wunderground v.1.15,2013-07-21 00:27:00,
2013-07-20 20:32:00,84.3,73.0,29.80,NW,309,0.0,0.0,69,0.00,,,0.00,Wunderground v.1.15,2013-07-21 00:32:00,
2013-07-20 20:38:00,84.5,73.2,29.80,NW,309,1.0,1.0,69,0.00,,,0.00,Wunderground v.1.15,2013-07-21 00:38:00,
2013-07-20 20:44:00,84.4,73.5,29.80,NW,309,0.0,1.0,70,0.00,,,0.00,Wunderground v.1.15,2013-07-21 00:44:00,
2013-07-20 20:49:00,83.9,73.9,29.80,NW,309,0.0,1.0,72,0.00,,,0.00,Wunderground v.1.15,2013-07-21 00:49:00,
2013-07-20 20:54:00,83.0,73.4,29.80,NW,309,0.0,0.0,73,0.00,,,0.00,Wunderground v.1.15,2013-07-21 00:54:00,
2013-07-20 21:01:00,82.2,73.9,29.80,NW,309,0.0,0.0,76,0.00,,,0.00,Wunderground v.1.15,2013-07-21 01:01:00,
2013-07-20 21:07:00,81.4,73.9,29.80,NW,309,0.0,0.0,78,0.00,,,0.00,Wunderground v.1.15,2013-07-21 01:07:00,
2013-07-20 21:14:00,80.7,73.2,29.80,NW,309,0.0,2.0,78,0.00,,,0.00,Wunderground v.1.15,2013-07-21 01:14:00,
2013-07-20 21:20:00,80.6,73.5,29.80,NW,309,0.0,0.0,79,0.00,,,0.00,Wunderground v.1.15,2013-07-21 01:20:00,
2013-07-20 21:25:00,80.5,73.4,29.80,NW,309,0.0,0.0,79,0.00,,,0.00,Wunderground v.1.15,2013-07-21 01:25:00,
2013-07-20 21:34:00,80.2,73.1,29.81,NW,309,0.0,0.0,79,0.00,,,0.00,Wunderground v.1.15,2013-07-21 01:34:00,
2013-07-20 21:40:00,79.9,73.2,29.81,NW,309,0.0,0.0,80,0.00,,,0.00,Wunderground v.1.15,2013-07-21 01:40:00,
2013-07-20 21:46:00,79.7,73.3,29.82,NW,309,0.0,0.0,81,0.00,,,0.00,Wunderground v.1.15,2013-07-21 01:46:00,
2013-07-20 21:51:00,79.3,73.3,29.82,NW,309,0.0,0.0,82,0.00,,,0.00,Wunderground v.1.15,2013-07-21 01:51:00,
2013-07-20 21:57:00,78.9,73.3,29.83,NW,309,0.0,0.0,83,0.00,,,0.00,Wunderground v.1.15,2013-07-21 01:57:00,
2013-07-20 22:02:00,78.5,72.9,29.83,NW,309,0.0,0.0,83,0.00,,,0.00,Wunderground v.1.15,2013-07-21 02:02:00,
2013-07-20 22:09:00,78.3,73.1,29.83,NW,309,0.0,0.0,84,0.00,,,0.00,Wunderground v.1.15,2013-07-21 02:09:00,
2013-07-20 22:14:00,78.2,73.3,29.84,NW,309,0.0,0.0,85,0.00,,,0.00,Wunderground v.1.15,2013-07-21 02:14:00,
2013-07-20 22:21:00,78.2,73.0,29.84,NW,309,0.0,0.0,84,0.00,,,0.00,Wunderground v.1.15,2013-07-21 02:21:00,
2013-07-20 22:26:00,78.0,73.1,29.84,NW,309,0.0,0.0,85,0.00,,,0.00,Wunderground v.1.15,2013-07-21 02:26:00,
2013-07-20 22:31:00,77.8,72.9,29.84,NW,309,0.0,0.0,85,0.00,,,0.00,Wunderground v.1.15,2013-07-21 02:31:00,
2013-07-20 22:37:00,77.5,73.0,29.84,NW,309,0.0,0.0,86,0.00,,,0.00,Wunderground v.1.15,2013-07-21 02:37:00,
2013-07-20 22:43:00,77.3,72.8,29.84,NW,309,0.0,0.0,86,0.00,,,0.00,Wunderground v.1.15,2013-07-21 02:43:00,
2013-07-20 22:49:00,77.1,72.6,29.84,NW,309,0.0,0.0,86,0.00,,,0.00,Wunderground v.1.15,2013-07-21 02:49:00,
2013-07-20 22:55:00,76.7,72.2,29.84,NW,309,0.0,0.0,86,0.00,,,0.00,Wunderground v.1.15,2013-07-21 02:55:00,
2013-07-20 23:01:00,76.2,71.7,29.85,NW,309,0.0,0.0,86,0.00,,,0.00,Wunderground v.1.15,2013-07-21 03:01:00,
2013-07-20 23:06:00,76.1,71.6,29.84,NW,309,0.0,0.0,86,0.00,,,0.00,Wunderground v.1.15,2013-07-21 03:06:00,
2013-07-20 23:12:00,75.7,71.6,29.84,NW,309,0.0,0.0,87,0.00,,,0.00,Wunderground v.1.15,2013-07-21 03:12:00,
2013-07-20 23:20:00,75.5,71.7,29.84,NW,309,0.0,0.0,88,0.00,,,0.00,Wunderground v.1.15,2013-07-21 03:20:00,
2013-07-20 23:25:00,75.2,71.4,29.84,NW,309,0.0,0.0,88,0.00,,,0.00,Wunderground v.1.15,2013-07-21 03:25:00,
2013-07-20 23:31:00,75.0,71.2,29.84,NW,309,0.0,0.0,88,0.00,,,0.00,Wunderground v.1.15,2013-07-21 03:31:00,
2013-07-20 23:37:00,74.6,70.8,29.85,NW,309,0.0,0.0,88,0.00,,,0.00,Wunderground v.1.15,2013-07-21 03:37:00,
2013-07-20 23:43:00,74.5,71.0,29.85,NW,309,0.0,0.0,89,0.00,,,0.00,Wunderground v.1.15,2013-07-21 03:43:00,
2013-07-20 23:49:00,74.2,70.7,29.85,NW,309,0.0,0.0,89,0.00,,,0.00,Wunderground v.1.15,2013-07-21 03:49:00,
2013-07-20 23:55:00,74.1,71.0,29.85,NW,309,0.0,0.0,90,0.00,,,0.00,Wunderground v.1.15,2013-07-21 03:55:00,